Wind_Speed
12 11 11 10 10 10 9 8 8 8 8 8 8 8 8 8 8 9 10 9 9 9 9 9 8 9 8 8 9 9 9 9 9 9 9 8 7 7 7 7 6 5 5
12 12 11 11 11 10 10 9 9 9 9 9 9 9 9 9 9 9 9 9 10 10 10 10 10 9 9 10 10 10 10 10 9 10 10 10 10 9 8 9 8 7 7
13 12 11 10 10 10 10 10 10 9 9 9 9 9 9 9 10 10 10 10 10 10 11 11 11 11 11 11 11 11 12 12 12 11 11 12 12 11 10 9 9 9 9
13 13 12 11 11 10 10 10 9 8 8 8 9 9 9 9 10 10 10 11 11 11 11 11 11 12 11 12 13 13 14 14 13 13 12 12 13 13 13 12 11 10 10
13 12 12 11 10 10 10 10 9 8 9 9 8 8 9 9 9 9 10 10 10 10 10 11 12 12 13 13 13 14 15 14 14 14 14 13 13 13 13 13 14 13 13
13 12 11 11 10 10 10 10 10 9 9 8 8 8 8 9 9 9 9 9 10 10 11 12 12 12 13 13 13 14 14 14 14 14 15 15 15 14 14 14 14 15 15
12 11 11 10 10 9 9 9 9 9 8 7 7 7 8 8 9 9 9 9 9 10 10 11 12 12 12 13 13 13 13 13 14 15 15 15 16 16 15 15 15 15 16
12 11 11 10 9 8 8 8 8 8 8 8 7 7 8 8 8 8 8 9 9 10 10 11 11 11 12 12 12 12 12 12 13 14 13 14 15 15 16 17 17 17 17
11 10 10 10 9 8 8 8 7 7 7 7 7 8 8 7 8 8 8 8 9 9 10 10 11 11 11 11 11 12 12 13 14 14 14 14 16 16 17 19 19 19 19
11 10 10 9 9 9 8 8 8 7 7 7 7 7 7 7 7 8 8 8 9 9 10 9 9 10 10 11 11 11 12 12 12 13 14 15 16 17 18 18 19 20 21
11 10 9 8 8 7 7 7 7 7 7 7 6 6 7 7 7 8 8 8 9 9 9 9 9 9 10 10 10 11 11 12 12 13 13 14 15 16 17 18 18 20 21
10 9 9 8 7 6 6 6 6 6 6 5 6 6 7 7 7 8 8 8 9 9 9 10 9 10 10 10 10 11 11 11 12 13 13 14 15 15 15 17 18 19 19
9 9 9 8 7 6 6 5 5 6 6 5 6 6 7 8 8 9 9 9 10 10 10 10 10 10 10 10 10 11 11 11 12 13 14 14 15 16 16 16 17 18 18
9 9 8 8 7 7 6 5 5 6 5 6 6 7 7 8 9 9 9 10 10 10 10 10 10 10 10 10 10 10 11 11 12 12 13 13 14 15 15 16 17 17 18
9 9 9 8 7 6 6 6 5 6 6 6 7 7 8 9 8 8 9 9 9 9 9 10 10 11 11 11 11 11 11 11 12 12 13 13 14 15 15 16 16 18 19
10 9 8 7 7 7 7 6 6 6 6 7 7 8 8 8 8 8 8 9 9 9 10 10 10 11 11 12 12 12 12 12 13 13 14 14 15 15 16 16 16 17 18
10 10 9 8 8 8 8 7 7 7 7 7 8 9 9 9 8 9 9 10 10 10 11 11 11 11 12 13 13 13 13 14 14 15 15 16 16 16 17 17 18 19 19
11 10 10 9 8 8 8 8 8 7 8 8 9 9 9 9 9 10 10 11 11 12 12 12 13 13 13 14 14 14 15 15 15 16 16 16 17 17 18 19 19 20 21
11 11 10 10 9 9 9 9 8 8 8 9 9 10 10 10 10 11 12 12 13 13 14 14 14 15 15 15 16 16 16 16 16 17 17 18 19 19 19 20 21 21 22
11 11 11 11 10 10 10 10 10 10 10 10 11 11 11 12 12 12 13 13 14 14 15 16 16 17 17 18 18 18 18 18 19 19 19 19 20 20 21 21 22 23 23
11 10 11 11 10 11 11 11 11 11 11 11 11 11 12 13 13 14 14 15 16 16 17 17 18 19 19 20 21 21 21 21 21 22 22 22 22 23 23 24 24 25 25
10 10 11 11 11 11 11 12 12 12 12 12 12 13 14 15 15 15 16 17 18 18 19 20 20 21 22 22 22 23 23 23 24 24 25 25 25 25 25 26 27 27 28
11 11 11 11 12 13 13 14 14 14 14 15 15 16 16 16 17 18 19 19 20 21 22 22 23 23 23 24 24 24 25 26 26 27 27 27 28 28 28 28 29 30 30
12 13 13 13 14 15 16 16 16 16 17 18 18 18 18 19 19 20 21 22 23 24 24 24 24 25 25 26 26 27 28 28 28 29 30 30 30 30 31 32 32 33 34
13 13 14 14 15 15 16 17 17 18 19 19 20 20 21 21 21 22 23 24 25 25 26 26 26 26 27 28 29 30 30 31 31 31 33 33 33 33 34 35 35 36 36
14 15 15 16 16 16 16 17 18 19 20 20 21 22 22 23 24 25 26 26 27 27 27 28 28 29 30 31 32 33 33 34 34 34 35 36 36 37 36 37 38 38 38
Wind_Direction
236 235 235 238 243 248 252 253 252 253 255 259 260 262 267 271 269 262 261 262 264 263 265 266 267 268 267 265 269 263 256 255 252 248 247 245 244 244 242 237 237 230 226
237 239 243 242 243 245 250 254 257 255 257 262 265 266 268 271 272 268 264 266 267 265 268 269 268 268 268 269 272 268 262 261 257 253 250 248 245 244 246 243 237 235 232
240 240 241 238 241 248 251 252 255 255 260 264 268 270 271 271 272 273 270 270 271 270 270 270 270 270 271 272 272 274 268 264 257 255 256 253 250 246 246 247 243 242 240
237 238 238 239 242 248 251 255 255 254 261 266 271 274 273 273 273 274 273 274 275 275 273 271 273 272 275 276 272 273 272 270 265 259 258 258 256 251 250 247 247 246 246
235 238 239 241 244 248 252 253 253 256 264 266 271 275 276 276 275 275 275 277 276 277 276 277 276 275 276 276 275 277 275 269 266 262 260 260 260 256 255 253 249 248 249
234 237 240 239 241 247 251 252 253 257 264 268 274 277 280 280 277 276 279 279 278 279 277 280 280 281 278 275 280 281 277 272 267 262 261 261 261 260 260 260 256 252 251
237 237 235 238 240 246 251 252 252 256 263 269 273 275 281 284 283 281 281 284 284 284 284 285 288 284 283 283 283 282 279 273 269 267 264 264 263 262 261 262 260 257 254
234 231 232 236 238 244 248 252 251 254 259 267 271 275 282 285 285 286 287 289 289 288 289 289 290 289 286 289 285 282 281 277 272 270 269 269 267 265 263 261 261 262 259
229 229 229 233 237 244 249 248 249 256 259 267 273 275 276 280 286 289 291 293 298 296 295 295 293 293 294 292 289 286 282 279 274 270 270 271 269 269 268 265 262 263 263
225 225 227 231 237 242 245 246 251 255 260 269 274 276 276 279 287 289 293 297 301 302 301 301 301 303 298 295 291 289 285 283 280 278 276 276 276 275 272 270 266 267 267
218 219 222 228 233 234 236 243 249 253 260 267 274 278 283 285 289 294 297 301 305 307 306 306 303 306 305 303 303 299 292 284 283 283 282 282 282 280 277 273 271 271 271
217 217 216 220 225 226 230 238 245 251 257 264 272 280 286 293 298 299 301 304 307 309 310 310 309 308 308 306 306 305 298 288 284 283 284 284 283 282 281 279 275 274 275
213 212 211 215 218 223 231 239 243 250 256 264 275 283 288 291 295 297 299 301 303 304 307 312 313 312 311 312 311 310 308 299 292 288 285 284 284 283 281 281 280 277 275
211 212 211 213 218 225 232 236 242 250 257 268 281 286 290 293 297 298 299 301 302 303 306 309 312 313 314 315 313 311 310 308 304 298 294 291 289 288 286 285 283 281 278
212 212 210 213 219 225 233 239 249 255 261 274 283 289 294 296 299 301 300 301 304 306 310 311 312 313 314 314 311 309 307 305 305 304 301 299 295 293 291 289 286 284 284
210 212 211 217 223 230 238 248 258 262 264 274 282 287 292 292 293 298 300 303 306 305 307 311 312 313 313 313 312 310 308 307 304 302 303 303 301 297 295 294 291 289 287
214 211 216 223 231 237 245 253 260 267 270 278 284 288 289 288 293 297 300 301 301 303 307 309 310 311 311 311 311 311 310 308 305 303 302 302 301 300 297 294 291 290 289
212 217 221 226 234 244 251 256 264 269 273 279 284 288 289 290 292 294 295 295 298 300 302 305 306 306 307 307 308 308 307 306 305 304 302 300 300 300 299 297 294 292 291
218 223 226 232 240 251 256 258 265 270 274 277 281 283 286 289 290 292 294 295 295 297 299 300 301 302 303 303 304 305 305 304 304 304 302 300 298 297 298 298 296 295 293
222 226 231 238 246 253 257 259 263 268 273 276 280 280 283 287 291 293 293 294 295 295 296 297 298 299 299 300 301 301 301 301 302 302 301 300 298 297 296 296 296 294 293
227 231 236 242 251 257 259 262 265 268 272 277 279 281 285 289 291 292 292 293 294 295 295 295 296 297 297 297 298 299 299 299 300 300 300 299 298 297 296 295 294 294 292
234 240 244 248 253 257 260 263 265 268 271 274 278 281 284 287 288 291 292 292 293 294 295 296 296 297 297 297 297 298 298 298 298 298 299 299 298 297 296 295 294 292 292
241 246 250 253 257 260 261 263 267 269 272 274 278 282 283 285 287 288 289 291 292 292 293 295 296 297 297 297 297 297 297 298 298 297 296 297 296 295 294 293 292 291 290
246 250 253 257 261 263 265 265 267 270 272 275 277 280 282 284 286 286 288 290 293 293 293 293 294 295 295 296 296 296 297 297 297 296 296 295 294 294 295 294 293 293 292
251 255 258 261 263 265 268 269 270 272 274 277 278 279 281 284 286 288 288 289 292 293 293 292 293 294 295 295 296 296 296 296 296 296 295 295 294 293 294 294 294 293 292
254 258 262 263 266 269 272 274 275 276 277 279 281 282 283 285 287 288 289 290 291 293 293 293 293 293 294 295 296 296 296 295 295 295 294 294 294 294 293 293 293 293 291
Height
5878 5879 5880 5881 5882 5883 5884 5885 5886 5886 5887 5887 5888 5889 5889 5889 5890 5891 5891 5892 5892 5893 5893 5894 5894 5895 5895 5896 5896 5897 5897 5898 5898 5899 5900 5900 5901 5901 5902 5902 5903 5903 5904
5877 5878 5879 5880 5881 5882 5883 5884 5884 5885 5885 5886 5887 5887 5888 5888 5888 5889 5889 5890 5890 5891 5892 5892 5893 5893 5894 5894 5894 5895 5895 5896 5897 5897 5898 5899 5899 5900 5901 5901 5902 5902 5903
5875 5876 5877 5878 5879 5880 5881 5882 5883 5883 5884 5884 5885 5886 5886 5887 5887 5887 5888 5888 5889 5889 5890 5890 5891 5892 5892 5892 5892 5893 5893 5894 5894 5895 5896 5897 5898 5898 5899 5900 5900 5901 5902
5873 5874 5876 5877 5878 5879 5880 5881 5881 5882 5883 5883 5884 5884 5885 5885 5885 5885 5886 5887 5887 5887 5888 5888 5889 5889 5890 5890 5890 5890 5891 5891 5892 5893 5894 5894 5895 5896 5897 5897 5898 5899 5900
5871 5872 5874 5875 5876 5877 5878 5879 5880 5881 5881 5881 5882 5882 5883 5883 5883 5884 5884 5884 5885 5885 5886 5886 5886 5887 5887 5887 5887 5888 5888 5888 5889 5890 5891 5892 5892 5893 5894 5895 5896 5896 5897
5869 5870 5872 5873 5874 5875 5877 5878 5878 5879 5880 5880 5881 5881 5881 5881 5882 5882 5882 5882 5882 5883 5883 5884 5884 5884 5884 5885 5885 5885 5885 5885 5886 5887 5888 5888 5889 5890 5891 5892 5892 5893 5894
5867 5868 5870 5871 5873 5874 5875 5876 5877 5878 5878 5879 5879 5880 5880 5880 5880 5880 5880 5880 5880 5881 5881 5881 5881 5881 5881 5882 5882 5882 5882 5882 5883 5883 5884 5885 5886 5887 5887 5888 5889 5890 5891
5865 5866 5868 5870 5871 5872 5873 5874 5875 5876 5876 5877 5878 5878 5878 5879 5878 5878 5879 5879 5879 5879 5879 5879 5879 5879 5879 5879 5879 5879 5879 5879 5880 5880 5881 5881 5882 5883 5884 5884 5885 5886 5886
5863 5865 5866 5868 5869 5871 5872 5873 5874 5874 5875 5876 5876 5877 5877 5877 5877 5877 5877 5877 5877 5877 5877 5876 5876 5876 5876 5876 5876 5876 5876 5876 5877 5877 5877 5878 5878 5879 5879 5880 5881 5881 5882
5861 5863 5865 5866 5868 5869 5870 5871 5872 5873 5874 5874 5874 5875 5875 5875 5876 5876 5876 5875 5875 5875 5875 5874 5874 5874 5874 5873 5873 5873 5873 5873 5873 5874 5874 5874 5874 5874 5875 5875 5876 5877 5877
5859 5861 5863 5865 5866 5867 5868 5869 5870 5871 5872 5873 5873 5873 5874 5874 5874 5874 5874 5874 5874 5873 5873 5873 5872 5872 5872 5871 5871 5870 5870 5870 5870 5870 5870 5870 5870 5870 5870 5870 5871 5872 5872
5858 5860 5861 5863 5865 5866 5867 5868 5869 5870 5871 5871 5872 5872 5872 5873 5873 5873 5873 5872 5872 5871 5871 5871 5870 5870 5869 5869 5868 5867 5867 5867 5867 5867 5866 5866 5866 5866 5866 5866 5866 5866 5867
5857 5858 5860 5862 5863 5865 5866 5867 5868 5869 5869 5870 5870 5871 5871 5871 5871 5871 5871 5871 5870 5870 5869 5869 5868 5868 5867 5867 5866 5865 5864 5864 5863 5863 5863 5863 5862 5862 5861 5862 5862 5861 5862
5855 5857 5859 5861 5862 5864 5865 5866 5867 5868 5868 5869 5869 5869 5870 5870 5869 5869 5869 5869 5868 5868 5867 5867 5866 5865 5865 5864 5864 5863 5862 5861 5860 5860 5859 5859 5858 5858 5857 5857 5857 5857 5857
5854 5856 5858 5859 5861 5862 5863 5865 5866 5866 5867 5867 5868 5868 5868 5868 5867 5867 5867 5867 5867 5866 5866 5865 5864 5863 5863 5862 5861 5860 5860 5859 5858 5857 5856 5855 5855 5854 5854 5853 5852 5852 5852
5852 5855 5857 5858 5859 5861 5862 5863 5864 5865 5866 5866 5866 5866 5866 5866 5866 5865 5865 5865 5865 5864 5864 5863 5862 5861 5861 5860 5859 5858 5857 5856 5855 5854 5853 5852 5851 5850 5849 5849 5848 5847 5847
5851 5853 5855 5857 5858 5860 5861 5862 5863 5863 5864 5864 5864 5864 5864 5864 5864 5864 5863 5863 5863 5862 5862 5861 5860 5859 5858 5857 5856 5855 5854 5853 5852 5851 5850 5849 5848 5846 5845 5844 5843 5842 5842
5849 5851 5853 5855 5856 5858 5859 5860 5861 5861 5862 5862 5862 5862 5862 5862 5862 5862 5861 5861 5860 5860 5859 5859 5858 5857 5856 5855 5853 5852 5851 5850 5849 5847 5846 5845 5844 5842 5841 5840 5838 5837 5836
5847 5849 5851 5853 5854 5855 5856 5857 5858 5859 5860 5860 5860 5860 5860 5860 5860 5859 5859 5858 5858 5857 5856 5856 5855 5854 5853 5851 5850 5849 5848 5846 5845 5844 5842 5841 5839 5838 5836 5835 5833 5832 5830
5845 5846 5848 5850 5851 5852 5854 5855 5856 5856 5857 5857 5857 5857 5857 5857 5857 5856 5856 5855 5855 5854 5853 5852 5851 5850 5849 5847 5846 5845 5843 5842 5840 5839 5837 5836 5834 5832 5831 5829 5827 5825 5824
5842 5844 5845 5847 5848 5850 5851 5852 5853 5853 5854 5854 5854 5854 5854 5854 5853 5853 5852 5852 5851 5850 5849 5848 5847 5846 5844 5843 5841 5840 5839 5837 5835 5834 5832 5830 5829 5827 5825 5823 5821 5819 5816
5840 5841 5843 5844 5846 5847 5848 5849 5850 5850 5851 5851 5851 5851 5851 5850 5850 5849 5848 5848 5847 5845 5844 5843 5842 5840 5839 5837 5836 5834 5832 5831 5830 5828 5826 5824 5822 5820 5818 5816 5814 5811 5809
5837 5839 5840 5841 5843 5844 5845 5845 5846 5846 5847 5847 5847 5847 5846 5846 5845 5845 5844 5843 5842 5840 5839 5838 5836 5835 5833 5832 5830 5828 5826 5824 5822 5820 5818 5816 5814 5812 5810 5808 5806 5803 5801
5834 5835 5837 5838 5839 5840 5840 5841 5842 5842 5842 5842 5842 5842 5842 5841 5841 5840 5838 5837 5836 5834 5833 5832 5830 5828 5827 5825 5823 5821 5819 5817 5815 5812 5809 5808 5805 5803 5801 5798 5796 5793 5791
5831 5832 5833 5834 5835 5836 5836 5836 5837 5837 5837 5837 5837 5837 5836 5836 5835 5834 5833 5831 5830 5828 5826 5825 5823 5821 5819 5817 5815 5813 5811 5809 5807 5804 5800 5798 5796 5794 5791 5789 5785 5783 5780
5827 5828 5829 5830 5831 5831 5832 5832 5832 5832 5832 5832 5832 5831 5830 5830 5829 5827 5826 5824 5823 5821 5819 5818 5816 5814 5812 5809 5807 5804 5802 5800 5797 5795 5791 5788 5786 5783 5781 5778 5775 5771 5769